Weather History for FAGG - March, 2013

Change the Weather History Date:

Tuesday, March 12, 2013

  Actual Average Record
Temperature  
Mean Temperature 68 °F -  
Max Temperature 77 °F 72 °F 95 °F (2003)
Min Temperature 58 °F 55 °F 48 °F (1997)
Cooling Degree Days 2    
Growing Degree Days 18 (Base 50)    
Moisture  
Dew Point 62 °F    
Average Humidity 84    
Maximum Humidity 94    
Minimum Humidity 63    
Precipitation  
Precipitation 0.00 in - - ()
Sea Level Pressure  
Sea Level Pressure 29.98 in    
Wind  
Wind Speed 6 mph ()    
Max Wind Speed 12 mph    
Max Gust Speed -    
Visibility 5.2 miles    
Events Fog    
Averages and records for this station are not official NWS values.
T = Trace of Precipitation, MM = Missing Value Source: Averaged Metar Reports

Daily Weather History Graph

Daily Weather History Graph

Search for Another Location

Airport or City:

Trip Planner

Search our weather history database for the weather conditions in past years. The results will help you decide how hot, cold, wet, or windy it might be!

Date:

Astronomy

Mar. 12, 2013 Rise Set
Actual Time 6:27 AM SAST 6:52 PM SAST
Civil Twilight 6:02 AM SAST 7:17 PM SAST
Nautical Twilight 5:32 AM SAST 7:46 PM SAST
Astronomical Twilight 5:02 AM SAST 8:16 PM SAST
Moon 6:57 AM SAST (3/12) 7:00 PM SAST (3/12)
Length of Visible Light 13h 15m
Length of Day
12h 25m
New Moon, 0% of the Moon is Illuminated
Mar 12
New Moon
Mar 19
First Quarter
Mar 27
Full
Apr 3
Last Quarter
Apr 10
New

Hourly Weather History & Observations

Time (SAST) Temp. Dew Point Humidity Pressure Visibility Wind Dir Wind Speed Gust Speed Precip Events Conditions
12:00 AM 62.6 °F 59.0 °F 88% 29.95 in - NNW 4.6 mph - N/A   Clear
1:00 AM 60.8 °F 59.0 °F 94% 29.95 in - WNW 5.8 mph - N/A   Clear
2:00 AM 62 °F 60 °F 90% 29.94 in 0 mi West 4.6 mph - -  
5:00 AM 60 °F 58 °F 92% 29.91 in 0 mi NW 4.6 mph - - Fog Heavy Fog
5:00 AM 60.8 °F 59.0 °F 94% 29.89 in 0.2 mi NW 3.5 mph - N/A Fog Fog
6:00 AM 60.8 °F 59.0 °F 94% 29.89 in 0.2 mi WNW 3.5 mph - N/A Fog Fog
7:00 AM 59.0 °F 57.2 °F 94% 29.92 in 0.2 mi WNW 5.8 mph - N/A Fog Fog
8:00 AM 62 °F 60 °F 92% 29.94 in 0 mi WNW 8.1 mph - - Fog Heavy Fog
8:00 AM 62.6 °F 60.8 °F 94% 29.92 in 0.2 mi WNW 8.1 mph - N/A Fog Fog
9:00 AM 64.4 °F 62.6 °F 94% 29.95 in 0.2 mi West 8.1 mph - N/A Fog Fog
10:00 AM 68.0 °F 66.2 °F 94% 29.95 in 6.2 mi WSW 6.9 mph - N/A   Scattered Clouds
11:00 AM 74 °F 65 °F 68% 29.96 in 12 mi WSW 6.9 mph - -   Scattered Clouds
11:00 AM 73.4 °F 66.2 °F 78% 29.95 in 6.2 mi WSW 5.8 mph - N/A   Partly Cloudy
12:00 PM 75.2 °F 66.2 °F 73% 29.95 in 6.2 mi SSW 10.4 mph - N/A   Partly Cloudy
1:00 PM 77.0 °F 66.2 °F 69% 29.95 in 6.2 mi SSW 9.2 mph - N/A   Partly Cloudy
2:00 PM 74 °F 64 °F 63% 29.94 in 12 mi SSW 11.5 mph - -   Partly Cloudy
2:00 PM 75.2 °F 66.2 °F 73% 29.95 in 6.2 mi SSW 10.4 mph - N/A   Partly Cloudy
3:00 PM 73.4 °F 64.4 °F 73% 29.95 in 6.2 mi SSW 11.5 mph - N/A   Scattered Clouds
4:00 PM 73.4 °F 64.4 °F 73% 29.98 in 6.2 mi SW 8.1 mph - N/A   Partly Cloudy
5:00 PM 72 °F 65 °F 71% 29.98 in 12 mi SW 9.2 mph - -   Scattered Clouds
5:00 PM 71.6 °F 64.4 °F 78% 30.01 in 6.2 mi SW 9.2 mph - N/A   Partly Cloudy
6:00 PM 69.8 °F 62.6 °F 78% 30.01 in 6.2 mi SW 9.2 mph - N/A   Scattered Clouds
7:00 PM 66.2 °F 62.6 °F 88% 30.04 in 6.2 mi WSW 5.8 mph - N/A   Scattered Clouds
8:00 PM 66 °F 62 °F 82% 30.06 in 12 mi WNW 5.8 mph - -   Scattered Clouds
8:00 PM 66.2 °F 62.6 °F 88% 30.06 in 6.2 mi WNW 5.8 mph - N/A   Partly Cloudy
9:00 PM 64.4 °F 62.6 °F 94% 30.09 in 5.6 mi West 6.9 mph - N/A   Partly Cloudy
10:00 PM 64.4 °F 60.8 °F 88% 30.12 in 5.6 mi WNW 6.9 mph - N/A   Partly Cloudy
11:00 PM 64.4 °F 62.6 °F 94% 30.12 in 5.6 mi NW 6.9 mph - N/A   Mostly Cloudy